Year,Month,Day,Hour,Minute,Value (Times are PST for temperature in C)
2007,04,25,11,06,9.00
2007,04,25,11,07,9.00
2007,04,25,11,08,9.00
2007,04,25,11,09,9.00
2007,04,25,11,10,9.00
2007,04,25,11,11,8.90
2007,04,25,11,12,8.90
2007,04,25,11,13,8.90
2007,04,25,11,14,8.90
2007,04,25,11,15,8.80
2007,04,25,11,16,8.80
2007,04,25,11,17,8.80
2007,04,25,11,18,8.80
2007,04,25,11,19,8.80
2007,04,25,11,20,8.90
2007,04,25,11,21,8.90
2007,04,25,11,22,8.90
2007,04,25,11,23,8.90
2007,04,25,11,24,8.90
2007,04,25,11,25,8.90
2007,04,25,11,26,8.90
2007,04,25,11,27,8.90
2007,04,25,11,28,8.90
2007,04,25,11,29,9.00
2007,04,25,11,30,9.00
2007,04,25,11,31,9.10
2007,04,25,11,32,9.20
2007,04,25,11,33,9.20
2007,04,25,11,34,9.30
2007,04,25,11,35,9.30
2007,04,25,11,36,9.40
2007,04,25,11,37,9.40
2007,04,25,11,38,9.30
2007,04,25,11,39,9.20
2007,04,25,11,40,9.20
2007,04,25,11,41,9.20
2007,04,25,11,42,9.20
2007,04,25,11,43,9.20
2007,04,25,11,44,9.20
2007,04,25,11,45,9.10
2007,04,25,11,46,9.10
2007,04,25,11,47,9.10
2007,04,25,11,48,9.10
2007,04,25,11,49,9.10
2007,04,25,11,50,9.10
2007,04,25,11,51,9.20
2007,04,25,11,52,9.20
2007,04,25,11,53,9.30
2007,04,25,11,54,9.30
2007,04,25,11,55,9.30
2007,04,25,11,56,9.30
2007,04,25,11,57,9.30
2007,04,25,11,58,9.30
2007,04,25,11,59,9.30
2007,04,25,12,00,9.30
2007,04,25,12,01,9.30
2007,04,25,12,02,9.30
2007,04,25,12,03,9.40
2007,04,25,12,04,9.50
2007,04,25,12,05,9.60
2007,04,25,12,06,9.70
2007,04,25,12,07,9.80
2007,04,25,12,08,9.80
2007,04,25,12,09,9.80
2007,04,25,12,10,9.80
2007,04,25,12,11,9.80
2007,04,25,12,12,9.70
2007,04,25,12,13,9.70
2007,04,25,12,14,9.70
2007,04,25,12,15,9.70
2007,04,25,12,16,9.80
2007,04,25,12,17,9.80
2007,04,25,12,18,9.80
2007,04,25,12,19,9.70
2007,04,25,12,20,9.70
2007,04,25,12,21,9.60
2007,04,25,12,22,9.50
2007,04,25,12,23,9.40
2007,04,25,12,24,9.40
2007,04,25,12,25,9.40
2007,04,25,12,26,9.40
2007,04,25,12,27,9.50
2007,04,25,12,28,9.60
2007,04,25,12,29,9.60
2007,04,25,12,30,9.60
2007,04,25,12,31,9.60
2007,04,25,12,32,9.60
2007,04,25,12,33,9.60
2007,04,25,12,34,9.60
2007,04,25,12,35,9.60
2007,04,25,12,36,9.60
2007,04,25,12,37,9.60
2007,04,25,12,38,9.50
2007,04,25,12,39,9.60
2007,04,25,12,40,9.70
2007,04,25,12,41,9.70
2007,04,25,12,42,9.70
2007,04,25,12,43,9.80
2007,04,25,12,44,9.80
2007,04,25,12,45,9.80
2007,04,25,12,46,9.80
2007,04,25,12,47,9.80
2007,04,25,12,48,9.80
2007,04,25,12,49,9.80
2007,04,25,12,50,9.80
2007,04,25,12,51,9.80
2007,04,25,12,52,9.70
2007,04,25,12,53,9.70
2007,04,25,12,54,9.60
2007,04,25,12,55,9.70
2007,04,25,12,56,9.70
2007,04,25,12,57,9.70
2007,04,25,12,58,9.80
2007,04,25,12,59,9.80
2007,04,25,13,00,9.90
2007,04,25,13,01,10.00
2007,04,25,13,02,10.10
2007,04,25,13,03,10.10
2007,04,25,13,04,10.10
2007,04,25,13,05,10.00
2007,04,25,13,06,10.00
2007,04,25,13,07,9.90
2007,04,25,13,08,9.90
2007,04,25,13,09,9.90
2007,04,25,13,10,10.00
2007,04,25,13,11,10.00
2007,04,25,13,12,10.10
2007,04,25,13,13,10.10
2007,04,25,13,14,9.90
2007,04,25,13,15,9.80
2007,04,25,13,16,9.80
2007,04,25,13,17,9.80
2007,04,25,13,18,9.80
2007,04,25,13,19,9.80
2007,04,25,13,20,9.90
2007,04,25,13,21,9.90
2007,04,25,13,22,10.00
2007,04,25,13,23,10.00
2007,04,25,13,24,9.90
2007,04,25,13,25,10.00
2007,04,25,13,26,10.00
2007,04,25,13,27,9.90
2007,04,25,13,28,10.00
2007,04,25,13,29,10.10
2007,04,25,13,30,10.10
2007,04,25,13,31,10.10
2007,04,25,13,32,10.00
2007,04,25,13,33,9.90
2007,04,25,13,34,9.90
2007,04,25,13,35,9.90
2007,04,25,13,36,10.00
2007,04,25,13,37,10.00
2007,04,25,13,38,10.10
2007,04,25,13,39,10.00
2007,04,25,13,40,10.00
2007,04,25,13,41,10.10
2007,04,25,13,42,10.10
2007,04,25,13,43,10.10
2007,04,25,13,44,10.00
2007,04,25,13,45,10.00
2007,04,25,13,46,10.00
2007,04,25,13,47,10.00
2007,04,25,13,48,10.10
2007,04,25,13,49,10.10
2007,04,25,13,50,10.10
2007,04,25,13,51,10.10
2007,04,25,13,52,10.10
2007,04,25,13,53,10.00
2007,04,25,13,54,10.00
2007,04,25,13,55,10.00
2007,04,25,13,56,10.00
2007,04,25,13,57,10.00
2007,04,25,13,58,10.10
2007,04,25,13,59,10.10
2007,04,25,14,00,10.20
2007,04,25,14,01,10.20
2007,04,25,14,02,10.30
2007,04,25,14,03,10.40
2007,04,25,14,04,10.60
2007,04,25,14,05,10.60
2007,04,25,14,06,10.60
2007,04,25,14,07,10.70
2007,04,25,14,08,10.80
2007,04,25,14,09,10.80
2007,04,25,14,10,10.80
2007,04,25,14,11,10.90
2007,04,25,14,12,11.00
2007,04,25,14,13,11.10
2007,04,25,14,14,11.10
2007,04,25,14,15,11.10
2007,04,25,14,16,11.20
2007,04,25,14,17,11.30
2007,04,25,14,18,11.40
2007,04,25,14,19,11.40
2007,04,25,14,20,11.50
2007,04,25,14,21,11.60
2007,04,25,14,22,11.50
2007,04,25,14,23,11.40
2007,04,25,14,24,11.30
2007,04,25,14,25,11.30
2007,04,25,14,26,11.20
2007,04,25,14,27,11.20
2007,04,25,14,28,11.20
2007,04,25,14,29,11.20
2007,04,25,14,30,11.00
2007,04,25,14,31,10.90
2007,04,25,14,32,10.80
2007,04,25,14,33,10.70
2007,04,25,14,34,10.60
2007,04,25,14,35,10.60
2007,04,25,14,36,10.60
2007,04,25,14,37,10.70
2007,04,25,14,38,10.80
2007,04,25,14,39,10.80
2007,04,25,14,40,10.80
2007,04,25,14,41,10.90
2007,04,25,14,42,10.90
2007,04,25,14,43,10.90
2007,04,25,14,44,11.00
2007,04,25,14,45,11.10
2007,04,25,14,46,11.20
2007,04,25,14,47,11.20
2007,04,25,14,48,11.20
2007,04,25,14,49,11.20
2007,04,25,14,50,11.20
2007,04,25,14,51,11.10
2007,04,25,14,52,11.00
2007,04,25,14,53,11.00
2007,04,25,14,54,11.00
2007,04,25,14,55,11.10
2007,04,25,14,56,11.10
2007,04,25,14,57,11.10
2007,04,25,14,58,11.10
2007,04,25,14,59,11.10
2007,04,25,15,00,11.20
2007,04,25,15,01,11.20
2007,04,25,15,02,11.20
2007,04,25,15,03,11.20
2007,04,25,15,04,11.30
2007,04,25,15,05,11.30
2007,04,25,15,06,11.30
2007,04,25,15,07,11.40
2007,04,25,15,08,11.40
2007,04,25,15,09,11.30
2007,04,25,15,10,11.30
2007,04,25,15,11,11.30
2007,04,25,15,12,11.30
2007,04,25,15,13,11.30
2007,04,25,15,14,11.30
2007,04,25,15,15,11.30
2007,04,25,15,16,11.30
2007,04,25,15,17,11.30
2007,04,25,15,18,11.30
2007,04,25,15,19,11.30
2007,04,25,15,20,11.30
2007,04,25,15,21,11.30
2007,04,25,15,22,11.30
2007,04,25,15,23,11.20
2007,04,25,15,24,11.00
2007,04,25,15,25,10.90
2007,04,25,15,26,10.80
2007,04,25,15,27,10.80
2007,04,25,15,28,10.70
2007,04,25,15,29,10.70
2007,04,25,15,30,10.60
2007,04,25,15,31,10.60
2007,04,25,15,32,10.60
2007,04,25,15,33,10.60
2007,04,25,15,34,10.60
2007,04,25,15,35,10.60
2007,04,25,15,36,10.50
2007,04,25,15,37,10.50
2007,04,25,15,38,10.50
2007,04,25,15,39,10.50
2007,04,25,15,40,10.50
2007,04,25,15,41,10.60
2007,04,25,15,42,10.60
2007,04,25,15,43,10.60
2007,04,25,15,44,10.60
2007,04,25,15,45,10.60
2007,04,25,15,46,10.60
2007,04,25,15,47,10.60
2007,04,25,15,48,10.60
2007,04,25,15,49,10.60
2007,04,25,15,50,10.50
2007,04,25,15,51,10.50
2007,04,25,15,52,10.60
2007,04,25,15,53,10.60
2007,04,25,15,54,10.60
2007,04,25,15,55,10.60
2007,04,25,15,56,10.60
2007,04,25,15,57,10.60
2007,04,25,15,58,10.60
2007,04,25,15,59,10.60
2007,04,25,16,00,10.60
2007,04,25,16,01,10.50
2007,04,25,16,02,10.50
2007,04,25,16,03,10.50
2007,04,25,16,04,10.50
2007,04,25,16,05,10.50
2007,04,25,16,06,10.60
2007,04,25,16,07,10.50
2007,04,25,16,08,10.50
2007,04,25,16,09,10.50
2007,04,25,16,10,10.50
2007,04,25,16,11,10.40
2007,04,25,16,12,10.40
2007,04,25,16,13,10.40
2007,04,25,16,14,10.40
2007,04,25,16,15,10.40
2007,04,25,16,16,10.40
2007,04,25,16,17,10.40
2007,04,25,16,18,10.40
2007,04,25,16,19,10.40
2007,04,25,16,20,10.30
2007,04,25,16,21,10.30
2007,04,25,16,22,10.30
2007,04,25,16,23,10.20
2007,04,25,16,24,10.20
2007,04,25,16,25,10.20
2007,04,25,16,26,10.10
2007,04,25,16,27,10.10
2007,04,25,16,28,10.10
2007,04,25,16,29,10.10
2007,04,25,16,30,10.10
2007,04,25,16,31,10.10
2007,04,25,16,32,10.10
2007,04,25,16,33,10.10
2007,04,25,16,34,10.10
2007,04,25,16,35,10.10
2007,04,25,16,36,10.10
2007,04,25,16,37,10.10
2007,04,25,16,38,10.10
2007,04,25,16,39,10.20
2007,04,25,16,40,10.20
2007,04,25,16,41,10.20
2007,04,25,16,42,10.20
2007,04,25,16,43,10.20
2007,04,25,16,44,10.30
2007,04,25,16,45,10.30
2007,04,25,16,46,10.30
2007,04,25,16,47,10.30
2007,04,25,16,48,10.30
2007,04,25,16,49,10.30
2007,04,25,16,50,10.30
2007,04,25,16,51,10.30
2007,04,25,16,52,10.20
2007,04,25,16,53,10.20
2007,04,25,16,54,10.10
2007,04,25,16,55,10.10
2007,04,25,16,56,10.10
2007,04,25,16,57,10.10
2007,04,25,16,58,10.10
2007,04,25,16,59,10.10
2007,04,25,17,00,10.10
2007,04,25,17,01,10.10
2007,04,25,17,02,10.00
2007,04,25,17,03,10.00
2007,04,25,17,04,9.90
2007,04,25,17,05,9.90
2007,04,25,17,06,9.90
2007,04,25,17,07,10.00
2007,04,25,17,08,10.00
2007,04,25,17,09,10.10
2007,04,25,17,10,10.10
2007,04,25,17,11,10.20
2007,04,25,17,12,10.20
2007,04,25,17,13,10.20
2007,04,25,17,14,10.20
2007,04,25,17,15,10.20
2007,04,25,17,16,10.20
2007,04,25,17,17,10.20
2007,04,25,17,18,10.30
2007,04,25,17,19,10.30
2007,04,25,17,20,10.30
2007,04,25,17,21,10.30
2007,04,25,17,22,10.40
2007,04,25,17,23,10.40
2007,04,25,17,24,10.40
2007,04,25,17,25,10.40
2007,04,25,17,26,10.40
2007,04,25,17,27,10.40
2007,04,25,17,28,10.40
2007,04,25,17,29,10.40
2007,04,25,17,30,10.50
2007,04,25,17,31,10.50
2007,04,25,17,32,10.50
2007,04,25,17,33,10.50
2007,04,25,17,34,10.50
2007,04,25,17,35,10.50
2007,04,25,17,36,10.50
2007,04,25,17,37,10.50
2007,04,25,17,38,10.40
2007,04,25,17,39,10.40
2007,04,25,17,40,10.40
2007,04,25,17,41,10.40
2007,04,25,17,42,10.50
2007,04,25,17,43,10.50
2007,04,25,17,44,10.50
2007,04,25,17,45,10.50
2007,04,25,17,46,10.50
2007,04,25,17,47,10.50
2007,04,25,17,48,10.50
2007,04,25,17,49,10.50
2007,04,25,17,50,10.50
2007,04,25,17,51,10.50
2007,04,25,17,52,10.60
2007,04,25,17,53,10.60
2007,04,25,17,54,10.60
2007,04,25,17,55,10.60
2007,04,25,17,56,10.60
2007,04,25,17,57,10.60
2007,04,25,17,58,10.60
2007,04,25,17,59,10.60
2007,04,25,18,00,10.50
2007,04,25,18,01,10.50
2007,04,25,18,02,10.50
2007,04,25,18,03,10.40
2007,04,25,18,04,10.40
2007,04,25,18,05,10.40
2007,04,25,18,06,10.40
2007,04,25,18,07,10.40
2007,04,25,18,08,10.40
2007,04,25,18,09,10.40
2007,04,25,18,10,10.40
2007,04,25,18,11,10.40
2007,04,25,18,12,10.40
2007,04,25,18,13,10.40
2007,04,25,18,14,10.40
2007,04,25,18,15,10.40
2007,04,25,18,16,10.40
2007,04,25,18,17,10.40
2007,04,25,18,18,10.30
2007,04,25,18,19,10.30
2007,04,25,18,20,10.30
2007,04,25,18,21,10.30
2007,04,25,18,22,10.30
2007,04,25,18,23,10.30
2007,04,25,18,24,10.30
2007,04,25,18,25,10.20
2007,04,25,18,26,10.20
2007,04,25,18,27,10.20
2007,04,25,18,28,10.20
2007,04,25,18,29,10.20
2007,04,25,18,30,10.10
2007,04,25,18,31,10.10
2007,04,25,18,32,10.10
2007,04,25,18,33,10.00
2007,04,25,18,34,10.00
2007,04,25,18,35,10.00
2007,04,25,18,36,10.00
2007,04,25,18,37,10.00
2007,04,25,18,38,10.00
2007,04,25,18,39,10.00
2007,04,25,18,40,9.90
2007,04,25,18,41,9.90
2007,04,25,18,42,9.90
2007,04,25,18,43,9.80
2007,04,25,18,44,9.80
2007,04,25,18,45,9.80
2007,04,25,18,46,9.70
2007,04,25,18,47,9.70
2007,04,25,18,48,9.70
2007,04,25,18,49,9.70
2007,04,25,18,50,9.60
2007,04,25,18,51,9.60
2007,04,25,18,52,9.60
2007,04,25,18,53,9.60
2007,04,25,18,54,9.60
2007,04,25,18,55,9.60
2007,04,25,18,56,9.60
2007,04,25,18,57,9.50
2007,04,25,18,58,9.50
2007,04,25,18,59,9.50
2007,04,25,19,00,9.50
2007,04,25,19,01,9.40
2007,04,25,19,02,9.40
2007,04,25,19,03,9.40
2007,04,25,19,04,9.40
2007,04,25,19,05,9.40
2007,04,25,19,06,9.40
2007,04,25,19,07,9.40
2007,04,25,19,08,9.40
2007,04,25,19,09,9.50
2007,04,25,19,10,9.40
2007,04,25,19,11,9.40
2007,04,25,19,12,9.40
2007,04,25,19,13,9.50
2007,04,25,19,14,9.50
2007,04,25,19,15,9.50
2007,04,25,19,16,9.50
2007,04,25,19,17,9.50
2007,04,25,19,18,9.50
2007,04,25,19,19,9.50
2007,04,25,19,20,9.40
2007,04,25,19,21,9.40
2007,04,25,19,22,9.40
2007,04,25,19,23,9.40
2007,04,25,19,24,9.40
2007,04,25,19,25,9.40
2007,04,25,19,26,9.40
2007,04,25,19,27,9.40
2007,04,25,19,28,9.40
2007,04,25,19,29,9.40
2007,04,25,19,30,9.40
2007,04,25,19,31,9.40
2007,04,25,19,32,9.50
2007,04,25,19,33,9.40
2007,04,25,19,34,9.50
2007,04,25,19,35,9.40
2007,04,25,19,36,9.40
2007,04,25,19,37,9.50
2007,04,25,19,38,9.50
2007,04,25,19,39,9.50
2007,04,25,19,40,9.50
2007,04,25,19,41,9.50
2007,04,25,19,42,9.50
2007,04,25,19,43,9.50
2007,04,25,19,44,9.50
2007,04,25,19,45,9.50
2007,04,25,19,46,9.50
2007,04,25,19,47,9.50
2007,04,25,19,48,9.40
2007,04,25,19,49,9.40
2007,04,25,19,50,9.40
2007,04,25,19,51,9.40
2007,04,25,19,52,9.40
2007,04,25,19,53,9.40
2007,04,25,19,54,9.40
2007,04,25,19,55,9.40
2007,04,25,19,56,9.40
2007,04,25,19,57,9.40
2007,04,25,19,58,9.30
2007,04,25,19,59,9.30
2007,04,25,20,00,9.30
2007,04,25,20,01,9.30
2007,04,25,20,02,9.30
2007,04,25,20,03,9.30
2007,04,25,20,04,9.30
2007,04,25,20,05,9.30
2007,04,25,20,06,9.30
2007,04,25,20,07,9.30
2007,04,25,20,08,9.30
2007,04,25,20,09,9.30
2007,04,25,20,10,9.30
2007,04,25,20,11,9.30
2007,04,25,20,12,9.30
2007,04,25,20,13,9.30
2007,04,25,20,14,9.20
2007,04,25,20,15,9.30
2007,04,25,20,16,9.20
2007,04,25,20,17,9.20
2007,04,25,20,18,9.30
2007,04,25,20,19,9.30
2007,04,25,20,20,9.30
2007,04,25,20,21,9.30
2007,04,25,20,22,9.30
2007,04,25,20,23,9.30
2007,04,25,20,24,9.30
2007,04,25,20,25,9.30
2007,04,25,20,26,9.20
2007,04,25,20,27,9.20
2007,04,25,20,28,9.20
2007,04,25,20,29,9.20
2007,04,25,20,30,9.20
2007,04,25,20,31,9.20
2007,04,25,20,32,9.20
2007,04,25,20,33,9.20
2007,04,25,20,34,9.20
2007,04,25,20,35,9.20
2007,04,25,20,36,9.20
2007,04,25,20,37,9.20
2007,04,25,20,38,9.20
2007,04,25,20,39,9.10
2007,04,25,20,40,9.10
2007,04,25,20,41,9.10
2007,04,25,20,42,9.10
2007,04,25,20,43,9.10
2007,04,25,20,44,9.10
2007,04,25,20,45,9.10
2007,04,25,20,46,9.10
2007,04,25,20,47,9.10
2007,04,25,20,48,9.10
2007,04,25,20,49,9.10
2007,04,25,20,50,9.10
2007,04,25,20,51,9.10
2007,04,25,20,52,9.10
2007,04,25,20,53,9.10
2007,04,25,20,54,9.10
2007,04,25,20,55,9.10
2007,04,25,20,56,9.10
2007,04,25,20,57,9.10
2007,04,25,20,58,9.10
2007,04,25,20,59,9.10
2007,04,25,21,00,9.10
2007,04,25,21,01,9.10
2007,04,25,21,02,9.10
2007,04,25,21,03,9.10
2007,04,25,21,04,9.10
2007,04,25,21,05,9.10
2007,04,25,21,06,9.10
2007,04,25,21,07,9.10
2007,04,25,21,08,9.10
2007,04,25,21,09,9.10
2007,04,25,21,10,9.10
2007,04,25,21,11,9.10
2007,04,25,21,12,9.10
2007,04,25,21,13,9.10
2007,04,25,21,14,9.10
2007,04,25,21,15,9.10
2007,04,25,21,16,9.00
2007,04,25,21,17,9.00
2007,04,25,21,18,9.00
2007,04,25,21,19,9.00
2007,04,25,21,20,9.00
2007,04,25,21,21,9.00
2007,04,25,21,22,9.00
2007,04,25,21,23,9.00
2007,04,25,21,24,9.00
2007,04,25,21,25,9.00
2007,04,25,21,26,9.00
2007,04,25,21,27,9.00
2007,04,25,21,28,9.00
2007,04,25,21,29,9.10
2007,04,25,21,30,9.10
2007,04,25,21,31,9.10
2007,04,25,21,32,9.10
2007,04,25,21,33,9.10
2007,04,25,21,34,9.10
2007,04,25,21,35,9.10
2007,04,25,21,36,9.10
2007,04,25,21,37,9.10
2007,04,25,21,38,9.10
2007,04,25,21,39,9.10
2007,04,25,21,40,9.10
2007,04,25,21,41,9.10
2007,04,25,21,42,9.10
2007,04,25,21,43,9.10
2007,04,25,21,44,9.10
2007,04,25,21,45,9.10
2007,04,25,21,46,9.10
2007,04,25,21,47,9.10
2007,04,25,21,48,9.10
2007,04,25,21,49,9.10
2007,04,25,21,50,9.10
2007,04,25,21,51,9.00
2007,04,25,21,52,9.00
2007,04,25,21,53,9.00
2007,04,25,21,54,8.90
2007,04,25,21,55,8.90
2007,04,25,21,56,8.90
2007,04,25,21,57,8.90
2007,04,25,21,58,8.90
2007,04,25,21,59,8.90
2007,04,25,22,00,8.90
2007,04,25,22,01,8.90
2007,04,25,22,02,8.90
2007,04,25,22,03,8.90
2007,04,25,22,04,8.90
2007,04,25,22,05,8.90
2007,04,25,22,06,8.90
2007,04,25,22,07,8.90
2007,04,25,22,08,8.90
2007,04,25,22,09,8.90
2007,04,25,22,10,8.90
2007,04,25,22,11,8.90
2007,04,25,22,12,8.90
2007,04,25,22,13,8.90
2007,04,25,22,14,8.90
2007,04,25,22,15,8.90
2007,04,25,22,16,8.90
2007,04,25,22,17,8.90
2007,04,25,22,18,8.90
2007,04,25,22,19,8.90
2007,04,25,22,20,8.90
2007,04,25,22,21,8.90
2007,04,25,22,22,8.90
2007,04,25,22,23,8.90
2007,04,25,22,24,9.00
2007,04,25,22,25,9.00
2007,04,25,22,26,9.00
2007,04,25,22,27,9.00
2007,04,25,22,28,9.00
2007,04,25,22,29,9.00
2007,04,25,22,30,9.00
2007,04,25,22,31,8.90
2007,04,25,22,32,8.90
2007,04,25,22,33,8.90
2007,04,25,22,34,8.90
2007,04,25,22,35,8.90
2007,04,25,22,36,8.90
2007,04,25,22,37,8.90
2007,04,25,22,38,8.90
2007,04,25,22,39,8.90
2007,04,25,22,40,8.90
2007,04,25,22,41,8.80
2007,04,25,22,42,8.80
2007,04,25,22,43,8.80
2007,04,25,22,44,8.80
2007,04,25,22,45,8.80
2007,04,25,22,46,8.90
2007,04,25,22,47,8.80
2007,04,25,22,48,8.80
2007,04,25,22,49,8.80
2007,04,25,22,50,8.80
2007,04,25,22,51,8.80
2007,04,25,22,52,8.80
2007,04,25,22,53,8.80
2007,04,25,22,54,8.80
2007,04,25,22,55,8.80
2007,04,25,22,56,8.80
2007,04,25,22,57,8.80
2007,04,25,22,58,8.80
2007,04,25,22,59,8.80
2007,04,25,23,00,8.80
2007,04,25,23,01,8.80
2007,04,25,23,02,8.80
2007,04,25,23,03,8.80
2007,04,25,23,04,8.80
2007,04,25,23,05,8.80
2007,04,25,23,06,8.80
2007,04,25,23,07,8.80
2007,04,25,23,08,8.80
2007,04,25,23,09,8.80
2007,04,25,23,10,8.80
2007,04,25,23,11,8.80
2007,04,25,23,12,8.80
2007,04,25,23,13,8.80
2007,04,25,23,14,8.80
2007,04,25,23,15,8.80
2007,04,25,23,16,8.80
2007,04,25,23,17,8.80
2007,04,25,23,18,8.80
2007,04,25,23,19,8.80
2007,04,25,23,20,8.80
2007,04,25,23,21,8.80
2007,04,25,23,22,8.80
2007,04,25,23,23,8.80
2007,04,25,23,24,8.80
2007,04,25,23,25,8.80
2007,04,25,23,26,8.80
2007,04,25,23,27,8.80
2007,04,25,23,28,8.80
2007,04,25,23,29,8.80
2007,04,25,23,30,8.80
2007,04,25,23,31,8.70
2007,04,25,23,32,8.70
2007,04,25,23,33,8.70
2007,04,25,23,34,8.80
2007,04,25,23,35,8.80
2007,04,25,23,36,8.80
2007,04,25,23,37,8.80
2007,04,25,23,38,8.70
2007,04,25,23,39,8.70
2007,04,25,23,40,8.70
2007,04,25,23,41,8.70
2007,04,25,23,42,8.80
2007,04,25,23,43,8.80
2007,04,25,23,44,8.70
2007,04,25,23,45,8.70
2007,04,25,23,46,8.80
2007,04,25,23,47,8.80
2007,04,25,23,48,8.80
2007,04,25,23,49,8.80
2007,04,25,23,50,8.80
2007,04,25,23,51,8.70
2007,04,25,23,52,8.70
2007,04,25,23,53,8.70
2007,04,25,23,54,8.70
2007,04,25,23,55,8.70
2007,04,25,23,56,8.70
2007,04,25,23,57,8.70
2007,04,25,23,58,8.70
2007,04,25,23,59,8.70
